Vorticity
-3 7 18 1 -12 30 10 7 5 23 14 11 6 10 11 12 11 8 9 11 10 9 7 9 11 12 9 9 5 8 8 7 8 7 8 8 7 8 8 7 10 6 4 -1
24 5 24 10 21 -20 -33 -15 11 -4 20 10 9 5 9 7 7 7 8 7 9 8 7 8 7 10 11 11 10 9 9 11 7 7 5 5 7 6 6 7 7 5 8 6
15 26 -10 23 22 4 11 3 2 -6 -12 -2 5 5 11 -5 -3 10 8 5 5 8 10 10 8 7 8 10 9 9 9 8 8 7 6 8 9 8 9 9 10 9 7 5
17 13 27 5 8 27 33 -4 1 7 15 18 14 31 32 25 17 2 5 5 8 11 -1 9 3 7 10 8 8 8 7 8 9 8 8 7 9 7 6 6 8 4 -1 6
12 3 8 27 38 13 0 15 18 25 23 18 7 9 8 10 18 18 22 21 10 12 14 13 10 4 8 -4 -6 -3 2 4 5 4 5 6 7 6 7 6 3 2 2 1
7 10 5 7 16 15 16 19 19 17 17 8 0 4 9 14 11 5 6 6 11 -4 -8 -5 1 6 13 11 13 14 12 9 9 9 6 3 3 10 10 6 7 8 8 6
9 13 8 9 4 18 20 15 15 16 18 25 11 15 17 11 8 12 10 13 14 14 18 22 23 18 14 12 12 12 12 14 12 11 9 14 11 12 11 14 14 13 13 13
7 7 4 5 4 9 10 14 15 11 13 15 24 19 21 21 18 11 9 11 11 9 6 7 9 11 10 8 5 5 8 8 9 10 15 13 12 11 8 5 7 10 12 13
5 6 15 6 6 3 10 10 10 8 11 10 14 20 18 10 11 16 16 14 6 4 8 8 6 3 3 6 8 5 7 10 10 11 7 5 6 6 7 9 8 9 11 10
18 18 18 22 5 6 9 10 10 11 3 9 10 11 11 10 10 10 13 13 10 11 15 11 8 4 4 6 5 6 7 11 7 12 12 14 9 12 13 14 10 9 8 6
4 11 9 15 16 11 7 -5 6 9 19 13 9 10 11 10 11 12 12 11 19 16 10 9 13 13 17 15 13 14 16 17 19 18 15 14 14 17 18 15 17 15 13 15
26 5 14 17 15 14 3 7 -4 7 21 12 7 11 5 9 13 11 17 15 17 11 11 14 17 18 18 13 13 14 16 10 10 10 16 20 15 14 8 6 8 10 12 12
28 19 13 1 13 14 11 5 7 6 4 11 15 12 9 13 6 13 3 5 10 7 9 9 11 12 11 11 10 8 12 7 7 11 18 17 22 13 15 13 13 15 16 15
20 31 9 23 -7 -2 25 11 4 5 15 11 7 5 8 9 7 4 12 14 11 12 15 13 12 7 9 10 12 9 5 8 11 13 15 15 7 5 6 5 7 9 9 11
15 18 23 8 3 29 -1 25 14 8 -3 2 11 10 8 14 21 21 14 19 21 18 18 15 9 7 10 13 15 17 14 14 21 15 8 9 8 9 8 8 8 8 9 3
15 21 21 22 17 20 9 1 -9 12 16 11 11 12 13 9 5 3 -4 -5 -8 8 8 6 7 12 -8 9 16 23 39 19 12 14 14 8 10 12 12 7 4 0 0 41
33 22 17 15 14 9 11 18 14 -2 -15 -1 5 5 1 -1 2 10 16 24 8 17 12 7 0 -4 19 18 21 23 6 1 19 16 5 0 -1 1 3 4 15 28 25 15
13 14 30 23 14 16 16 13 13 19 24 20 1 1 16 13 8 7 8 6 11 12 16 23 34 23 21 29 33 17 9 6 4 6 11 14 8 6 13 31 31 10 8 9
16 1 -0 13 21 21 21 21 20 17 17 18 24 18 12 21 20 18 18 15 15 10 25 28 21 22 20 6 12 11 8 6 1 1 9 22 31 27 15 8 8 10 9 8
24 24 17 15 17 15 15 18 25 28 30 39 28 22 17 16 16 14 22 21 15 18 13 9 8 8 2 -1 3 6 13 21 25 20 6 2 3 4 7 7 6 6 7 8
8 9 10 17 15 14 13 17 16 15 12 15 14 17 18 13 17 13 12 6 4 4 10 7 8 12 19 21 19 11 8 8 7 5 5 5 6 7 7 8 10 11 10 8
9 7 8 8 5 7 3 8 10 10 6 9 10 8 5 5 6 7 5 6 6 5 6 7 7 7 7 6 6 4 5 6 7 8 9 10 10 11 13 12 9 8 7 6
6 7 8 6 8 10 8 4 2 4 6 4 4 6 8 8 6 5 5 4 5 6 4 5 5 4 3 4 5 7 7 8 10 12 14 14 20 19 18 15 15 10 6 5
6 6 6 4 6 7 7 7 5 4 5 4 4 4 4 5 5 4 4 6 4 4 5 6 6 5 7 7 8 9 10 15 19 19 18 17 13 9 15 19 9 22 25 21
7 6 7 6 10 8 7 7 7 7 5 5 5 6 6 6 7 5 5 6 5 7 9 7 8 9 9 8 12 17 18 17 15 14 14 13 14 15 15 15 16 17 16 16
9 9 9 9 8 8 7 6 6 6 7 8 8 8 8 7 6 9 8 10 11 9 9 10 8 6 11 18 20 19 19 18 17 18 19 21 21 21 21 20 19 21 25 27
8 6 9 10 10 10 10 10 10 10 9 9 8 9 7 10 11 12 9 9 9 10 9 9 11 18 21 20 20 16 14 13 14 18 20 21 20 17 14 12 9 9 10 12
Height
5534 5543 5554 5564 5574 5583 5587 5593 5600 5608 5613 5620 5629 5638 5647 5656 5663 5669 5673 5680 5685 5690 5693 5697 5701 5706 5708 5710 5713 5716 5718 5716 5718 5721 5723 5725 5726 5729 5729 5726 5729 5727 5723 5721
5524 5533 5541 5551 5561 5567 5575 5580 5587 5594 5600 5605 5616 5626 5632 5638 5648 5655 5658 5665 5672 5677 5681 5683 5686 5691 5696 5697 5699 5701 5704 5704 5704 5704 5707 5709 5712 5714 5713 5713 5712 5712 5711 5712
5517 5522 5531 5538 5547 5554 5561 5567 5575 5583 5583 5596 5606 5610 5618 5622 5630 5640 5646 5650 5655 5662 5667 5671 5672 5676 5680 5684 5687 5689 5689 5690 5691 5694 5695 5693 5694 5695 5696 5694 5693 5699 5697 5699
5510 5515 5519 5527 5534 5541 5548 5554 5560 5568 5573 5582 5589 5597 5602 5608 5614 5622 5632 5634 5640 5645 5652 5657 5659 5662 5665 5669 5672 5673 5674 5676 5679 5680 5679 5678 5680 5680 5678 5677 5680 5675 5687 5679
5502 5507 5511 5516 5522 5529 5537 5544 5552 5558 5565 5571 5577 5583 5589 5595 5600 5606 5611 5618 5625 5630 5634 5640 5646 5646 5649 5652 5657 5657 5659 5661 5661 5662 5663 5661 5662 5663 5662 5661 5660 5660 5664 5660
5495 5501 5506 5510 5512 5517 5524 5533 5540 5547 5554 5561 5567 5573 5579 5584 5590 5594 5598 5602 5608 5616 5618 5622 5628 5631 5633 5634 5637 5640 5642 5643 5643 5644 5642 5642 5643 5646 5645 5642 5642 5642 5641 5641
5486 5493 5499 5503 5507 5509 5517 5523 5530 5537 5543 5549 5555 5562 5569 5574 5578 5582 5585 5588 5593 5597 5601 5606 5609 5613 5616 5619 5621 5623 5624 5626 5626 5625 5624 5621 5625 5627 5625 5624 5623 5623 5621 5620
5478 5485 5491 5496 5501 5504 5509 5515 5522 5527 5533 5539 5544 5551 5557 5562 5566 5571 5571 5575 5580 5584 5588 5591 5594 5597 5600 5602 5605 5607 5607 5607 5607 5607 5606 5605 5604 5605 5607 5605 5603 5603 5602 5600
5471 5477 5483 5489 5495 5499 5503 5506 5511 5518 5524 5528 5534 5540 5546 5551 5555 5559 5560 5564 5567 5571 5574 5577 5578 5582 5585 5587 5589 5590 5591 5591 5592 5591 5588 5587 5588 5588 5589 5586 5582 5582 5583 5581
5464 5470 5476 5482 5488 5494 5498 5501 5504 5508 5514 5518 5525 5531 5536 5540 5544 5547 5549 5552 5556 5558 5560 5563 5566 5568 5570 5573 5574 5575 5574 5574 5575 5574 5570 5569 5569 5571 5571 5570 5571 5567 5565 5563
5459 5464 5470 5476 5481 5486 5491 5496 5498 5501 5504 5510 5516 5521 5526 5530 5534 5536 5539 5543 5544 5547 5549 5551 5551 5554 5555 5559 5557 5557 5557 5557 5559 5556 5555 5555 5554 5553 5553 5553 5551 5550 5548 5544
5451 5457 5463 5468 5473 5478 5483 5489 5491 5495 5498 5503 5507 5512 5517 5521 5525 5527 5529 5531 5532 5534 5536 5538 5539 5541 5543 5543 5546 5544 5547 5544 5543 5543 5540 5536 5535 5534 5535 5536 5536 5534 5531 5526
5444 5449 5455 5461 5466 5470 5476 5481 5486 5487 5491 5495 5499 5503 5507 5511 5514 5517 5521 5521 5523 5524 5524 5526 5527 5529 5530 5531 5534 5531 5533 5530 5528 5525 5525 5521 5517 5517 5516 5517 5517 5515 5512 5508
5438 5442 5448 5454 5459 5463 5469 5474 5478 5481 5485 5488 5491 5495 5499 5501 5505 5509 5510 5512 5513 5514 5515 5515 5517 5519 5518 5520 5519 5521 5522 5518 5514 5510 5510 5506 5506 5503 5504 5502 5501 5499 5496 5492
5433 5437 5442 5448 5453 5457 5463 5466 5470 5474 5478 5481 5484 5487 5491 5494 5496 5499 5501 5502 5503 5503 5504 5505 5507 5507 5507 5507 5506 5511 5508 5503 5496 5494 5496 5494 5494 5492 5491 5489 5487 5484 5482 5478
5430 5433 5438 5444 5447 5451 5456 5460 5464 5468 5471 5474 5477 5481 5483 5486 5488 5490 5491 5492 5492 5493 5493 5493 5493 5495 5492 5489 5493 5496 5492 5488 5485 5483 5482 5480 5479 5479 5478 5475 5473 5471 5468 5463
5427 5430 5434 5438 5442 5445 5448 5453 5458 5462 5465 5468 5471 5473 5475 5477 5479 5480 5481 5481 5482 5482 5481 5482 5482 5482 5478 5476 5480 5479 5478 5476 5475 5473 5471 5470 5467 5465 5464 5462 5460 5457 5454 5451
5428 5430 5432 5435 5437 5440 5443 5446 5449 5452 5455 5458 5461 5464 5467 5467 5467 5468 5468 5468 5468 5468 5468 5469 5467 5465 5464 5464 5467 5467 5465 5464 5464 5462 5460 5457 5455 5453 5451 5449 5446 5444 5442 5439
5429 5430 5430 5433 5435 5437 5439 5441 5443 5445 5448 5448 5452 5454 5456 5456 5456 5456 5456 5457 5456 5456 5456 5456 5455 5454 5455 5457 5457 5457 5455 5454 5452 5450 5448 5445 5442 5439 5437 5436 5434 5432 5430 5427
5429 5430 5431 5431 5432 5433 5434 5436 5436 5438 5439 5441 5443 5444 5444 5446 5446 5446 5447 5447 5447 5447 5449 5447 5446 5447 5449 5449 5448 5446 5444 5442 5439 5436 5434 5431 5429 5427 5425 5423 5421 5418 5416 5414
5431 5431 5430 5430 5430 5430 5431 5432 5433 5434 5435 5436 5437 5437 5438 5440 5440 5440 5440 5440 5440 5440 5442 5440 5438 5439 5442 5439 5437 5434 5432 5429 5427 5424 5421 5418 5415 5412 5409 5406 5405 5403 5401 5399
5431 5430 5430 5430 5430 5430 5431 5431 5432 5432 5433 5433 5434 5434 5435 5436 5435 5435 5435 5434 5433 5433 5433 5431 5431 5432 5430 5428 5425 5422 5419 5416 5413 5409 5406 5402 5399 5396 5393 5390 5387 5385 5383 5381
5428 5428 5428 5428 5429 5428 5428 5427 5428 5428 5428 5429 5429 5429 5429 5429 5429 5428 5427 5426 5425 5424 5422 5422 5422 5418 5415 5412 5409 5406 5403 5399 5395 5391 5388 5384 5381 5378 5375 5373 5369 5368 5366 5363
5422 5422 5423 5423 5424 5424 5423 5423 5422 5423 5422 5422 5422 5422 5422 5421 5420 5419 5418 5416 5415 5413 5412 5411 5408 5405 5402 5398 5394 5390 5386 5382 5377 5373 5369 5366 5363 5359 5355 5352 5350 5348 5347 5344
5414 5414 5415 5417 5417 5416 5416 5415 5415 5415 5414 5414 5414 5413 5413 5412 5410 5409 5407 5405 5403 5402 5401 5397 5394 5391 5388 5384 5379 5374 5369 5364 5359 5355 5352 5349 5345 5342 5340 5335 5332 5329 5328 5326
5404 5404 5406 5407 5407 5407 5407 5407 5406 5406 5406 5405 5404 5404 5403 5402 5400 5399 5397 5395 5392 5390 5386 5383 5380 5376 5372 5367 5362 5357 5353 5348 5344 5340 5336 5333 5329 5327 5324 5320 5315 5312 5310 5308
5394 5396 5395 5395 5395 5396 5396 5396 5396 5396 5396 5395 5394 5393 5392 5390 5388 5388 5386 5383 5380 5377 5372 5368 5365 5362 5357 5352 5348 5343 5340 5336 5331 5327 5323 5320 5316 5313 5310 5307 5302 5300 5297 5294